| time (UTC) | temp F | wind direction | speed MPH | gust MPH | rain 1hr in | rain 24hr in | rain mn in | humidity % | barometer mb |
| 20260505183726 | 75 | 297 | 4.0 | 10.0 | 0.00 | 0.00 | 0.00 | 51 | 1004.0 |
| 20260505183224 | 75 | 130 | 5.0 | 12.0 | 0.00 | 0.00 | 0.00 | 50 | 1004.0 |
| 20260505182720 | 76 | 146 | 6.0 | 8.0 | 0.00 | 0.00 | 0.00 | 50 | 1004.3 |
| 20260505182217 | 76 | 191 | 4.0 | 9.0 | 0.00 | 0.00 | 0.00 | 50 | 1004.2 |
| 20260505181713 | 75 | 174 | 5.0 | 10.0 | 0.00 | 0.00 | 0.00 | 50 | 1004.3 |
| 20260505181211 | 76 | 129 | 2.0 | 6.0 | 0.00 | 0.00 | 0.00 | 51 | 1004.5 |
| 20260505180707 | 75 | 135 | 5.0 | 9.0 | 0.00 | 0.00 | 0.00 | 51 | 1004.6 |
| 20260505180204 | 75 | 204 | 2.0 | 11.0 | 0.00 | 0.00 | 0.00 | 51 | 1004.5 |
| 20260505175700 | 74 | 101 | 3.0 | 9.0 | 0.00 | 0.00 | 0.00 | 54 | 1004.7 |
| 20260505175157 | 74 | 143 | 3.0 | 6.0 | 0.00 | 0.00 | 0.00 | 52 | 1004.7 |
| 20260505174653 | 74 | 82 | 2.0 | 10.0 | 0.00 | 0.00 | 0.00 | 54 | 1005.0 |
| 20260505174149 | 74 | 170 | 4.0 | 8.0 | 0.00 | 0.00 | 0.00 | 51 | 1005.1 |
| 20260505173646 | 73 | 242 | 9.0 | 9.0 | 0.00 | 0.00 | 0.00 | 53 | 1005.1 |
| 20260505173143 | 71 | 216 | 10.0 | 12.0 | 0.00 | 0.00 | 0.00 | 54 | 1005.3 |
| 20260505172641 | 70 | 217 | 9.0 | 11.0 | 0.00 | 0.00 | 0.00 | 55 | 1005.3 |
| 20260505172138 | 71 | 126 | 3.0 | 7.0 | 0.00 | 0.00 | 0.00 | 55 | 1005.3 |
| 20260505171637 | 73 | 246 | 11.0 | 13.0 | 0.00 | 0.00 | 0.00 | 53 | 1005.5 |
| 20260505171135 | 72 | 174 | 5.0 | 9.0 | 0.00 | 0.00 | 0.00 | 53 | 1005.2 |
| 20260505170632 | 71 | 61 | 2.0 | 9.0 | 0.00 | 0.00 | 0.00 | 56 | 1005.5 |
| 20260505170128 | 70 | 230 | 5.0 | 15.0 | 0.00 | 0.00 | 0.00 | 56 | 1005.6 |
| 20260505165623 | 71 | 148 | 3.0 | 6.0 | 0.00 | 0.00 | 0.00 | 54 | 1005.8 |
| 20260505165120 | 70 | 201 | 7.0 | 13.0 | 0.00 | 0.00 | 0.00 | 55 | 1005.7 |
| 20260505164615 | 71 | 222 | 8.0 | 10.0 | 0.00 | 0.00 | 0.00 | 54 | 1005.9 |
| 20260505164113 | 71 | 222 | 9.0 | 11.0 | 0.00 | 0.00 | 0.00 | 55 | 1005.7 |
| 20260505163611 | 70 | 131 | 4.0 | 12.0 | 0.00 | 0.00 | 0.00 | 54 | 1005.9 |
| 20260505163108 | 70 | 201 | 7.0 | 15.0 | 0.00 | 0.00 | 0.00 | 54 | 1006.0 |
| 20260505162606 | 72 | 93 | 2.0 | 7.0 | 0.00 | 0.00 | 0.00 | 53 | 1006.2 |
| 20260505162103 | 71 | 138 | 7.0 | 9.0 | 0.00 | 0.00 | 0.00 | 56 | 1005.8 |
| 20260505161600 | 72 | 244 | 6.0 | 8.0 | 0.00 | 0.00 | 0.00 | 55 | 1006.1 |
| 20260505161057 | 72 | 164 | 6.0 | 7.0 | 0.00 | 0.00 | 0.00 | 54 | 1006.0 |
| 20260505160555 | 71 | 129 | 3.0 | 9.0 | 0.00 | 0.00 | 0.00 | 54 | 1005.9 |
| 20260505153032 | 69 | 99 | 2.0 | 5.0 | 0.00 | 0.00 | 0.00 | 57 | 1006.9 |
| 20260505152528 | 70 | 138 | 1.0 | 4.0 | 0.00 | 0.00 | 0.00 | 55 | 1007.1 |
| 20260505152024 | 69 | 97 | 1.0 | 7.0 | 0.00 | 0.00 | 0.00 | 56 | 1007.2 |
| 20260505151519 | 69 | 218 | 5.0 | 5.0 | 0.00 | 0.00 | 0.00 | 57 | 1006.9 |
| 20260505151017 | 67 | 201 | 7.0 | 9.0 | 0.00 | 0.00 | 0.00 | 57 | 1007.1 |
| 20260505150513 | 68 | 153 | 4.0 | 9.0 | 0.00 | 0.00 | 0.00 | 58 | 1006.8 |
| 20260505140438 | 65 | 202 | 2.0 | 14.0 | 0.00 | 0.00 | 0.00 | 59 | 1007.3 |
| 20260505124852 | 61 | 211 | 2.0 | 4.0 | 0.00 | 0.00 | 0.00 | 63 | 1007.6 |
| 20260505124349 | 60 | 154 | 2.0 | 12.0 | 0.00 | 0.00 | 0.00 | 64 | 1007.7 |
| 20260505123845 | 59 | 261 | 2.0 | 13.0 | 0.00 | 0.00 | 0.00 | 66 | 1007.6 |
| 20260505123342 | 60 | 185 | 2.0 | 5.0 | 0.00 | 0.00 | 0.00 | 65 | 1007.7 |
| 20260505122837 | 59 | 208 | 3.0 | 11.0 | 0.00 | 0.00 | 0.00 | 67 | 1007.8 |
| 20260505122335 | 59 | 126 | 1.0 | 10.0 | 0.00 | 0.00 | 0.00 | 67 | 1007.8 |
| 20260505121832 | 58 | 200 | 2.0 | 6.0 | 0.00 | 0.00 | 0.00 | 69 | 1007.9 |
| 20260505121329 | 57 | 154 | 0.0 | 8.0 | 0.00 | 0.00 | 0.00 | 70 | 1007.9 |
| 20260505120825 | 57 | 137 | 2.0 | 10.0 | 0.00 | 0.00 | 0.00 | 70 | 1008.0 |
| 20260505120321 | 56 | 203 | 4.0 | 6.0 | 0.00 | 0.00 | 0.00 | 71 | 1007.8 |
| 20260505115819 | 56 | 149 | 2.0 | 9.0 | 0.00 | 0.00 | 0.00 | 71 | 1008.1 |
| 20260505115317 | 56 | 86 | 2.0 | 5.0 | 0.00 | 0.00 | 0.00 | 73 | 1008.0 |
| 20260505114815 | 55 | 180 | 2.0 | 9.0 | 0.00 | 0.00 | 0.00 | 73 | 1008.0 |
| 20260505114311 | 55 | 163 | 4.0 | 5.0 | 0.00 | 0.00 | 0.00 | 73 | 1008.0 |
| 20260505113808 | 55 | 223 | 3.0 | 5.0 | 0.00 | 0.00 | 0.00 | 75 | 1008.0 |
| 20260505113304 | 53 | 250 | 1.0 | 4.0 | 0.00 | 0.00 | 0.00 | 76 | 1008.0 |
| 20260505112800 | 53 | 212 | 5.0 | 6.0 | 0.00 | 0.00 | 0.00 | 77 | 1008.1 |
| 20260505112258 | 53 | 174 | 2.0 | 6.0 | 0.00 | 0.00 | 0.00 | 78 | 1008.1 |
| 20260505111758 | 53 | 180 | 0.0 | 4.0 | 0.00 | 0.00 | 0.00 | 78 | 1008.1 |
| 20260505111254 | 53 | 194 | 4.0 | 4.0 | 0.00 | 0.00 | 0.00 | 78 | 1008.2 |
| 20260505110750 | 52 | 224 | 1.0 | 7.0 | 0.00 | 0.00 | 0.00 | 79 | 1008.0 |
| 20260505110248 | 52 | 231 | 4.0 | 5.0 | 0.00 | 0.00 | 0.00 | 79 | 1008.0 |
| 20260505101722 | 49 | 151 | 2.0 | 2.0 | 0.00 | 0.00 | 0.00 | 84 | 1007.9 |
| 20260505101217 | 48 | 77 | 1.0 | 2.0 | 0.00 | 0.00 | 0.00 | 88 | 1008.0 |
| 20260505100714 | 47 | 80 | 2.0 | 2.0 | 0.00 | 0.00 | 0.00 | 88 | 1007.8 |
| 20260505100211 | 47 | 80 | 2.0 | 2.0 | 0.00 | 0.00 | 0.00 | 88 | 1007.9 |
| 20260505095706 | 48 | 98 | 2.0 | 3.0 | 0.00 | 0.00 | 0.00 | 86 | 1007.8 |
| 20260505095205 | 48 | 221 | 2.0 | 3.0 | 0.00 | 0.00 | 0.00 | 86 | 1008.1 |
| 20260505094700 | 47 | 149 | 0.0 | 3.0 | 0.00 | 0.00 | 0.00 | 86 | 1007.9 |
| 20260505094157 | 47 | 89 | 0.0 | 4.0 | 0.00 | 0.00 | 0.00 | 86 | 1008.0 |
| 20260505093653 | 48 | 121 | 0.0 | 3.0 | 0.00 | 0.00 | 0.00 | 85 | 1007.9 |
| 20260505093151 | 48 | 71 | 2.0 | 3.0 | 0.00 | 0.00 | 0.00 | 86 | 1007.7 |
| 20260505092647 | 48 | 20 | 2.0 | 4.0 | 0.00 | 0.00 | 0.00 | 85 | 1007.8 |
| 20260505092146 | 48 | 139 | 2.0 | 3.0 | 0.00 | 0.00 | 0.00 | 85 | 1007.6 |
| 20260505091643 | 48 | 75 | 0.0 | 2.0 | 0.00 | 0.00 | 0.00 | 85 | 1007.8 |
| 20260505091141 | 48 | 180 | 2.0 | 2.0 | 0.00 | 0.00 | 0.00 | 85 | 1008.0 |
| 20260505090638 | 48 | 179 | 2.0 | 3.0 | 0.00 | 0.00 | 0.00 | 85 | 1007.9 |
| 20260505090136 | 48 | 11 | 0.0 | 1.0 | 0.00 | 0.00 | 0.00 | 85 | 1008.0 |
| 20260505085633 | 48 | 138 | 2.0 | 2.0 | 0.00 | 0.00 | 0.00 | 84 | 1007.9 |
| 20260505085131 | 47 | 134 | 1.0 | 2.0 | 0.00 | 0.00 | 0.00 | 85 | 1007.9 |
| 20260505084629 | 47 | 55 | 0.0 | 2.0 | 0.00 | 0.00 | 0.00 | 85 | 1007.9 |
| 20260505084127 | 48 | 236 | 0.0 | 2.0 | 0.00 | 0.00 | 0.00 | 84 | 1007.9 |
| 20260505083624 | 48 | 114 | 0.0 | 3.0 | 0.00 | 0.00 | 0.00 | 83 | 1008.1 |
| 20260505083121 | 48 | 236 | 0.0 | 2.0 | 0.00 | 0.00 | 0.00 | 84 | 1007.9 |
| 20260505082617 | 47 | 204 | 2.0 | 2.0 | 0.00 | 0.00 | 0.00 | 84 | 1007.9 |
| 20260505082114 | 47 | 11 | 0.0 | 2.0 | 0.00 | 0.00 | 0.00 | 85 | 1008.1 |
| 20260505081610 | 47 | 5 | 0.0 | 2.0 | 0.00 | 0.00 | 0.00 | 85 | 1007.9 |
| 20260505081108 | 47 | 135 | 0.0 | 4.0 | 0.00 | 0.00 | 0.00 | 84 | 1008.0 |
| 20260505080603 | 47 | 283 | 1.0 | 2.0 | 0.00 | 0.00 | 0.00 | 85 | 1008.1 |
| 20260505080100 | 46 | 43 | 0.0 | 1.0 | 0.00 | 0.00 | 0.00 | 87 | 1008.3 |
| 20260505075556 | 46 | 22 | 0.0 | 2.0 | 0.00 | 0.00 | 0.00 | 87 | 1008.1 |
| 20260505075053 | 46 | 165 | 1.0 | 2.0 | 0.00 | 0.00 | 0.00 | 86 | 1008.2 |
| 20260505074550 | 47 | 162 | 3.0 | 3.0 | 0.00 | 0.00 | 0.00 | 85 | 1007.9 |
| 20260505074047 | 47 | 69 | 0.0 | 3.0 | 0.00 | 0.00 | 0.00 | 85 | 1008.1 |
| 20260505073544 | 47 | 118 | 0.0 | 1.0 | 0.00 | 0.00 | 0.00 | 85 | 1007.9 |
| 20260505073043 | 47 | 194 | 1.0 | 2.0 | 0.00 | 0.00 | 0.00 | 85 | 1008.0 |
| 20260505072538 | 47 | 94 | 0.0 | 3.0 | 0.00 | 0.00 | 0.00 | 85 | 1008.0 |
| 20260505072035 | 47 | 172 | 1.0 | 3.0 | 0.00 | 0.00 | 0.00 | 84 | 1008.1 |
| 20260505071530 | 47 | 136 | 1.0 | 3.0 | 0.00 | 0.00 | 0.00 | 85 | 1008.0 |
| 20260505071029 | 47 | 340 | 0.0 | 3.0 | 0.00 | 0.00 | 0.00 | 86 | 1008.1 |
| 20260505070526 | 46 | 119 | 0.0 | 2.0 | 0.00 | 0.00 | 0.00 | 89 | 1008.0 |
| 20260505070022 | 46 | 330 | 0.0 | 1.0 | 0.00 | 0.00 | 0.00 | 89 | 1007.9 |
| 20260505065518 | 45 | 341 | 0.0 | 1.0 | 0.00 | 0.00 | 0.00 | 91 | 1008.1 |
| 20260505065014 | 45 | 116 | 0.0 | 0.0 | 0.00 | 0.00 | 0.00 | 91 | 1007.9 |
| 20260505064511 | 45 | 235 | 0.0 | 1.0 | 0.00 | 0.00 | 0.00 | 90 | 1008.0 |
| 20260505064010 | 45 | 351 | 0.0 | 2.0 | 0.00 | 0.00 | 0.00 | 91 | 1007.9 |
| 20260505063507 | 45 | 331 | 1.0 | 2.0 | 0.00 | 0.00 | 0.00 | 90 | 1007.9 |
| 20260505063008 | 45 | 235 | 0.0 | 1.0 | 0.00 | 0.00 | 0.00 | 90 | 1007.9 |
| 20260505062505 | 46 | 27 | 1.0 | 1.0 | 0.00 | 0.00 | 0.00 | 89 | 1008.0 |
| 20260505062002 | 46 | 63 | 0.0 | 2.0 | 0.00 | 0.00 | 0.00 | 88 | 1007.9 |
| 20260505061459 | 46 | 190 | 0.0 | 2.0 | 0.00 | 0.00 | 0.00 | 88 | 1008.1 |
| 20260505060957 | 46 | 233 | 0.0 | 3.0 | 0.00 | 0.00 | 0.00 | 87 | 1008.1 |
| 20260505060454 | 46 | 66 | 0.0 | 2.0 | 0.00 | 0.00 | 0.00 | 89 | 1008.0 |
| 20260505055950 | 45 | 221 | 2.0 | 3.0 | 0.00 | 0.00 | 0.00 | 91 | 1007.8 |
| 20260505055446 | 45 | 19 | 0.0 | 0.0 | 0.00 | 0.00 | 0.00 | 91 | 1008.0 |
| 20260505054943 | 46 | 113 | 0.0 | 2.0 | 0.00 | 0.00 | 0.00 | 90 | 1007.9 |
| 20260505054441 | 46 | 246 | 0.0 | 1.0 | 0.00 | 0.00 | 0.00 | 90 | 1007.9 |
| 20260505053938 | 46 | 135 | 0.0 | 2.0 | 0.00 | 0.00 | 0.00 | 89 | 1007.9 |
| 20260505053435 | 46 | 38 | 0.0 | 2.0 | 0.00 | 0.00 | 0.00 | 90 | 1007.9 |
| 20260505052932 | 46 | 103 | 0.0 | 1.0 | 0.00 | 0.00 | 0.00 | 89 | 1007.8 |
| 20260505052429 | 47 | 112 | 0.0 | 2.0 | 0.00 | 0.00 | 0.00 | 88 | 1007.7 |
| 20260505051926 | 47 | 144 | 0.0 | 2.0 | 0.00 | 0.00 | 0.00 | 87 | 1007.7 |
| 20260505051423 | 47 | 160 | 0.0 | 2.0 | 0.00 | 0.00 | 0.00 | 87 | 1008.0 |
| 20260505050921 | 47 | 176 | 0.0 | 3.0 | 0.00 | 0.00 | 0.00 | 87 | 1007.9 |
| 20260505050419 | 47 | 79 | 1.0 | 3.0 | 0.00 | 0.00 | 0.00 | 86 | 1008.2 |
| 20260505041347 | 45 | 177 | 0.0 | 2.0 | 0.00 | 0.00 | 0.00 | 95 | 1007.6 |
| 20260505040844 | 45 | 136 | 2.0 | 2.0 | 0.00 | 0.00 | 0.00 | 95 | 1007.4 |
| 20260505040342 | 45 | 110 | 1.0 | 2.0 | 0.00 | 0.00 | 0.00 | 95 | 1007.6 |
| 20260505035838 | 45 | 84 | 2.0 | 2.0 | 0.00 | 0.04 | 0.04 | 94 | 1007.4 |
| 20260505035334 | 45 | 102 | 2.0 | 2.0 | 0.00 | 0.04 | 0.04 | 95 | 1007.5 |
| 20260505034832 | 46 | 98 | 1.0 | 3.0 | 0.00 | 0.04 | 0.04 | 94 | 1007.4 |
| 20260505034328 | 46 | 93 | 1.0 | 2.0 | 0.00 | 0.04 | 0.04 | 94 | 1007.3 |
| 20260505033825 | 46 | 70 | 2.0 | 2.0 | 0.00 | 0.04 | 0.04 | 93 | 1007.5 |
| 20260505033322 | 46 | 88 | 2.0 | 3.0 | 0.00 | 0.04 | 0.04 | 92 | 1007.3 |
| 20260505032820 | 46 | 120 | 0.0 | 2.0 | 0.00 | 0.04 | 0.04 | 92 | 1007.2 |
| 20260505032316 | 46 | 124 | 0.0 | 1.0 | 0.00 | 0.04 | 0.04 | 93 | 1007.4 |
| 20260505031814 | 46 | 79 | 1.0 | 2.0 | 0.00 | 0.04 | 0.04 | 94 | 1007.2 |
| 20260505031309 | 46 | 67 | 2.0 | 2.0 | 0.00 | 0.04 | 0.04 | 95 | 1007.2 |
| 20260505030807 | 46 | 69 | 2.0 | 2.0 | 0.00 | 0.04 | 0.04 | 95 | 1007.2 |
| 20260505030303 | 47 | 54 | 2.0 | 2.0 | 0.00 | 0.04 | 0.04 | 94 | 1007.4 |
| 20260505025758 | 47 | 150 | 0.0 | 2.0 | 0.00 | 0.04 | 0.04 | 94 | 1007.3 |
| 20260505025256 | 47 | 39 | 1.0 | 2.0 | 0.00 | 0.04 | 0.04 | 93 | 1007.3 |
| 20260505024754 | 48 | 76 | 1.0 | 2.0 | 0.00 | 0.04 | 0.04 | 92 | 1007.5 |
| 20260505024252 | 48 | 82 | 1.0 | 3.0 | 0.00 | 0.04 | 0.04 | 91 | 1007.6 |
| 20260505023749 | 49 | 99 | 2.0 | 2.0 | 0.00 | 0.04 | 0.04 | 89 | 1007.5 |
| 20260505023246 | 48 | 81 | 0.0 | 1.0 | 0.00 | 0.04 | 0.04 | 90 | 1007.4 |
| 20260505022743 | 48 | 63 | 2.0 | 2.0 | 0.00 | 0.04 | 0.04 | 90 | 1007.2 |
| 20260505022240 | 48 | 49 | 0.0 | 1.0 | 0.00 | 0.04 | 0.04 | 90 | 1007.5 |
| 20260505021737 | 49 | 38 | 1.0 | 2.0 | 0.00 | 0.04 | 0.04 | 90 | 1007.4 |
| 20260505021234 | 49 | 43 | 2.0 | 2.0 | 0.00 | 0.04 | 0.04 | 88 | 1007.4 |
| 20260505020729 | 49 | 64 | 0.0 | 2.0 | 0.00 | 0.04 | 0.04 | 87 | 1007.5 |
| 20260505020225 | 50 | 82 | 0.0 | 2.0 | 0.00 | 0.04 | 0.04 | 86 | 1007.6 |
| 20260505015723 | 50 | 107 | 1.0 | 2.0 | 0.00 | 0.04 | 0.04 | 85 | 1007.5 |
| 20260505015219 | 50 | 77 | 2.0 | 2.0 | 0.00 | 0.04 | 0.04 | 85 | 1007.5 |
| 20260505014716 | 50 | 32 | 2.0 | 3.0 | 0.00 | 0.04 | 0.04 | 85 | 1007.5 |
| 20260505014214 | 50 | 57 | 0.0 | 0.0 | 0.00 | 0.04 | 0.04 | 84 | 1007.4 |
| 20260505013710 | 50 | 45 | 2.0 | 2.0 | 0.00 | 0.04 | 0.04 | 85 | 1007.3 |
| 20260505013207 | 50 | 52 | 2.0 | 2.0 | 0.00 | 0.04 | 0.04 | 84 | 1007.4 |
| 20260505012706 | 50 | 18 | 1.0 | 1.0 | 0.00 | 0.04 | 0.04 | 85 | 1007.4 |
| 20260505012203 | 49 | 27 | 1.0 | 1.0 | 0.00 | 0.04 | 0.04 | 87 | 1007.4 |
| 20260505011658 | 50 | 44 | 0.0 | 2.0 | 0.00 | 0.04 | 0.04 | 87 | 1007.3 |
| 20260505011155 | 49 | 49 | 2.0 | 3.0 | 0.00 | 0.04 | 0.04 | 87 | 1007.2 |
| 20260505010650 | 50 | 72 | 2.0 | 2.0 | 0.00 | 0.04 | 0.04 | 86 | 1007.1 |
| 20260505010148 | 50 | 106 | 3.0 | 3.0 | 0.00 | 0.04 | 0.04 | 84 | 1007.2 |
| 20260505005644 | 50 | 33 | 1.0 | 2.0 | 0.00 | 0.04 | 0.04 | 83 | 1007.1 |
| 20260505005141 | 50 | 57 | 0.0 | 2.0 | 0.00 | 0.04 | 0.04 | 83 | 1007.0 |
| 20260505004638 | 50 | 58 | 1.0 | 2.0 | 0.00 | 0.04 | 0.04 | 83 | 1006.8 |
| 20260505004134 | 51 | 4 | 2.0 | 3.0 | 0.00 | 0.04 | 0.04 | 83 | 1006.7 |
| 20260505003632 | 51 | 138 | 0.0 | 2.0 | 0.00 | 0.04 | 0.04 | 82 | 1006.8 |
| 20260505003129 | 51 | 357 | 1.0 | 2.0 | 0.00 | 0.04 | 0.04 | 82 | 1006.7 |
| 20260505002625 | 51 | 124 | 0.0 | 1.0 | 0.00 | 0.04 | 0.04 | 79 | 1006.6 |
| 20260505002124 | 52 | 81 | 0.0 | 2.0 | 0.00 | 0.04 | 0.04 | 79 | 1006.5 |
| 20260505001620 | 52 | 89 | 0.0 | 0.0 | 0.00 | 0.04 | 0.04 | 79 | 1006.3 |
| 20260505001118 | 52 | 66 | 0.0 | 1.0 | 0.00 | 0.04 | 0.04 | 79 | 1006.1 |
| 20260505000615 | 52 | 29 | 0.0 | 0.0 | 0.00 | 0.04 | 0.04 | 79 | 1006.1 |
| 20260505000113 | 53 | 24 | 1.0 | 1.0 | 0.00 | 0.04 | 0.04 | 79 | 1006.1 |
| 20260504235609 | 53 | 44 | 0.0 | 1.0 | 0.00 | 0.04 | 0.04 | 78 | 1006.1 |
| 20260504235106 | 53 | 359 | 0.0 | 1.0 | 0.00 | 0.04 | 0.04 | 78 | 1006.1 |
| 20260504234602 | 54 | 61 | 0.0 | 1.0 | 0.00 | 0.04 | 0.04 | 76 | 1005.9 |
| 20260504234100 | 55 | 39 | 2.0 | 2.0 | 0.00 | 0.04 | 0.04 | 75 | 1005.8 |
| 20260504233555 | 55 | 32 | 0.0 | 0.0 | 0.00 | 0.04 | 0.04 | 73 | 1006.0 |
| 20260504233052 | 56 | 44 | 0.0 | 1.0 | 0.00 | 0.04 | 0.04 | 73 | 1005.7 |
| 20260504232549 | 57 | 333 | 0.0 | 1.0 | 0.00 | 0.04 | 0.04 | 70 | 1005.7 |
| 20260504232047 | 57 | 40 | 0.0 | 2.0 | 0.00 | 0.04 | 0.04 | 69 | 1005.8 |
| 20260504231543 | 59 | 326 | 0.0 | 1.0 | 0.00 | 0.04 | 0.04 | 66 | 1005.6 |
| 20260504231039 | 59 | 1 | 0.0 | 1.0 | 0.00 | 0.04 | 0.04 | 66 | 1005.6 |
| 20260504230535 | 61 | 151 | 0.0 | 1.0 | 0.00 | 0.04 | 0.04 | 60 | 1005.5 |
| 20260504230035 | 63 | 122 | 0.0 | 1.0 | 0.00 | 0.04 | 0.04 | 57 | 1005.5 |
| 20260504225531 | 64 | 6 | 0.0 | 2.0 | 0.00 | 0.04 | 0.04 | 55 | 1005.4 |
| 20260504225028 | 64 | 38 | 1.0 | 2.0 | 0.00 | 0.04 | 0.04 | 51 | 1005.4 |
| 20260504224525 | 64 | 64 | 2.0 | 2.0 | 0.00 | 0.04 | 0.04 | 51 | 1005.4 |
| 20260504224022 | 64 | 50 | 2.0 | 3.0 | 0.00 | 0.04 | 0.04 | 52 | 1005.5 |
| 20260504223519 | 64 | 200 | 2.0 | 4.0 | 0.00 | 0.04 | 0.04 | 51 | 1005.5 |
| 20260504223015 | 65 | 48 | 2.0 | 3.0 | 0.00 | 0.04 | 0.04 | 51 | 1005.4 |
| 20260504222512 | 66 | 1 | 0.0 | 2.0 | 0.00 | 0.04 | 0.04 | 49 | 1005.5 |
| 20260504222009 | 65 | 244 | 1.0 | 4.0 | 0.00 | 0.04 | 0.04 | 52 | 1005.5 |
| 20260504221506 | 64 | 279 | 0.0 | 4.0 | 0.00 | 0.04 | 0.04 | 52 | 1005.6 |
| 20260504221003 | 65 | 231 | 4.0 | 4.0 | 0.00 | 0.04 | 0.04 | 50 | 1005.6 |
| 20260504220459 | 64 | 81 | 1.0 | 5.0 | 0.00 | 0.04 | 0.04 | 53 | 1005.4 |
| 20260504215956 | 64 | 196 | 2.0 | 4.0 | 0.00 | 0.04 | 0.04 | 51 | 1005.5 |
| 20260504215453 | 64 | 238 | 1.0 | 4.0 | 0.00 | 0.04 | 0.04 | 53 | 1005.6 |
| 20260504214950 | 64 | 9 | 2.0 | 6.0 | 0.00 | 0.04 | 0.04 | 52 | 1005.5 |
| 20260504214446 | 64 | 228 | 2.0 | 9.0 | 0.00 | 0.04 | 0.04 | 52 | 1005.3 |
| 20260504213943 | 64 | 114 | 0.0 | 6.0 | 0.00 | 0.04 | 0.04 | 54 | 1005.4 |
| 20260504213439 | 64 | 309 | 3.0 | 5.0 | 0.00 | 0.04 | 0.04 | 53 | 1005.5 |
| 20260504212937 | 64 | 71 | 2.0 | 5.0 | 0.00 | 0.04 | 0.04 | 53 | 1005.4 |
| 20260504212432 | 62 | 340 | 4.0 | 4.0 | 0.00 | 0.04 | 0.04 | 55 | 1005.5 |
| 20260504211930 | 62 | 332 | 2.0 | 5.0 | 0.00 | 0.04 | 0.04 | 56 | 1005.6 |
| 20260504211426 | 62 | 303 | 4.0 | 4.0 | 0.00 | 0.04 | 0.04 | 56 | 1005.6 |
| 20260504210924 | 62 | 356 | 3.0 | 5.0 | 0.00 | 0.04 | 0.04 | 55 | 1005.6 |
| 20260504210420 | 64 | 0 | 2.0 | 7.0 | 0.00 | 0.04 | 0.04 | 54 | 1005.5 |
| 20260504205918 | 64 | 240 | 4.0 | 9.0 | 0.00 | 0.04 | 0.04 | 54 | 1005.4 |
| 20260504205415 | 64 | 201 | 2.0 | 12.0 | 0.00 | 0.04 | 0.04 | 54 | 1005.4 |
| 20260504204913 | 63 | 286 | 5.0 | 11.0 | 0.00 | 0.04 | 0.04 | 53 | 1005.4 |
| 20260504204411 | 64 | 299 | 5.0 | 7.0 | 0.00 | 0.04 | 0.04 | 55 | 1005.3 |
| 20260504203911 | 64 | 265 | 7.0 | 9.0 | 0.00 | 0.04 | 0.04 | 54 | 1005.4 |
| 20260504203407 | 63 | 178 | 4.0 | 8.0 | 0.00 | 0.04 | 0.04 | 55 | 1005.5 |
| 20260504202903 | 62 | 335 | 8.0 | 14.0 | 0.00 | 0.04 | 0.04 | 55 | 1005.4 |
| 20260504202400 | 62 | 233 | 5.0 | 5.0 | 0.00 | 0.04 | 0.04 | 57 | 1005.5 |
| 20260504201856 | 61 | 125 | 4.0 | 6.0 | 0.00 | 0.04 | 0.04 | 58 | 1005.5 |
| 20260504201354 | 62 | 253 | 6.0 | 9.0 | 0.00 | 0.04 | 0.04 | 57 | 1005.4 |
| 20260504200851 | 61 | 93 | 4.0 | 9.0 | 0.00 | 0.04 | 0.04 | 58 | 1005.2 |
| 20260504200348 | 61 | 353 | 5.0 | 18.0 | 0.00 | 0.04 | 0.04 | 59 | 1005.5 |
| 20260504195844 | 62 | 246 | 10.0 | 13.0 | 0.00 | 0.04 | 0.04 | 57 | 1005.0 |
| 20260504195340 | 63 | 212 | 6.0 | 12.0 | 0.00 | 0.04 | 0.04 | 55 | 1005.2 |
| 20260504194837 | 63 | 282 | 3.0 | 10.0 | 0.00 | 0.04 | 0.04 | 59 | 1005.1 |
| 20260504194333 | 63 | 233 | 4.0 | 7.0 | 0.00 | 0.04 | 0.04 | 57 | 1005.3 |
| 20260504193829 | 62 | 275 | 5.0 | 11.0 | 0.00 | 0.04 | 0.04 | 59 | 1005.4 |
| 20260504193327 | 62 | 196 | 9.0 | 13.0 | 0.00 | 0.04 | 0.04 | 58 | 1005.3 |
| 20260504192825 | 62 | 310 | 11.0 | 13.0 | 0.00 | 0.04 | 0.04 | 61 | 1005.4 |
| 20260504192323 | 61 | 327 | 3.0 | 18.0 | 0.00 | 0.04 | 0.04 | 62 | 1005.6 |
| 20260504191821 | 61 | 331 | 10.0 | 17.0 | 0.00 | 0.04 | 0.04 | 62 | 1005.5 |
| 20260504191318 | 61 | 235 | 5.0 | 8.0 | 0.00 | 0.04 | 0.04 | 63 | 1005.6 |
| 20260504190814 | 61 | 0 | 5.0 | 9.0 | 0.00 | 0.04 | 0.04 | 65 | 1005.5 |
| 20260504190310 | 60 | 240 | 1.0 | 7.0 | 0.00 | 0.04 | 0.04 | 67 | 1005.7 |
| 20260504185806 | 59 | 312 | 4.0 | 10.0 | 0.00 | 0.04 | 0.04 | 68 | 1005.7 |
| 20260504185304 | 59 | 325 | 3.0 | 11.0 | 0.00 | 0.04 | 0.04 | 68 | 1005.6 |
| 20260504184759 | 59 | 78 | 1.0 | 6.0 | 0.00 | 0.04 | 0.04 | 70 | 1005.7 |
| 20260504184255 | 58 | 290 | 3.0 | 11.0 | 0.00 | 0.04 | 0.04 | 70 | 1005.8 |
| 20260504183751 | 59 | 257 | 4.0 | 10.0 | 0.00 | 0.04 | 0.04 | 71 | 1005.8 |